Home   Weather   Wilmington   Past weeks

Flag for USA Past Weather in Wilmington, North Carolina, USA — Yesterday and Last 2 Weeks

Now
61 °F

Low clouds.


Feels Like: 61 °F
Forecast: 66 / 72 °F
Wind: 12 mph from Northeast

Location: New Hanover International Airport

Current Time: Apr 24, 2017 at 3:21:45 am

Latest Report: Apr 24, 2017 at 1:53 am


Visibility: 7 mi

Pressure: 29.84 "Hg

Humidity: 100%

Dew Point: 61 °F

Location of WilmingtonLocation

Past Weather in Wilmington — Graph

°F

Wilmington Temperature Yesterday

Maximum temperature yesterday: 71 °F (at 12:53 am)
Minimum temperature yesterday: 59 °F (at 7:53 am)
Average temperature yesterday: 63 °F

High & Low Weather Summary for the Past Weeks

 TemperatureHumidityPressure
High86 °F (Apr 21, 12:53 pm)100% (Apr 10, 3:53 am)30.37 "Hg (Apr 10, 3:53 am)
Low42 °F (Apr 9, 6:53 am)26% (Apr 9, 2:53 pm)29.84 "Hg (Apr 22, 4:53 pm)
Average68 °F77%30.17 "Hg
* Reported Apr 9 1:53 am — Apr 24 1:53 am, Wilmington, Weather by CustomWeather, © 2017

Note: Actual official high and low records may vary slightly from our data, if they occured in-between our weather recording intervals... More about our weather records

Advertising

Wilmington Weather History for the Previous 24 Hours

Scroll right to see more
 ConditionsComfort  
Time TempWeatherWind HumidityBarometerVisibility
1:53 am
Mon, Apr 24
61 °FLow clouds.12 mph100%29.84 "Hg7 mi
12:53 am61 °FLow clouds.7 mph100%29.88 "Hg8 mi
11:53 pm
Sun, Apr 23
61 °FLight rain. Fog.12 mph100%29.89 "Hg6 mi
10:53 pm62 °FLow clouds.10 mph96%29.91 "Hg8 mi
9:53 pm62 °FLow clouds.12 mph96%29.91 "Hg10 mi
8:53 pm63 °FLow clouds.10 mph93%29.91 "Hg10 mi
7:53 pm63 °FOvercast.12 mph93%29.90 "Hg10 mi
7:15 pm64 °FOvercast.12 mph90%29.90 "Hg10 mi
6:53 pm64 °FLow clouds.12 mph94%29.90 "Hg10 mi
5:53 pm65 °FLow clouds.12 mph91%29.89 "Hg10 mi
4:53 pm65 °FLow clouds.14 mph91%29.91 "Hg10 mi
4:37 pm65 °FLow clouds.12 mph94%29.91 "Hg10 mi
3:53 pm65 °FOvercast.12 mph94%29.92 "Hg10 mi
3:24 pm65 °FOvercast.10 mph94%29.93 "Hg10 mi
2:53 pm64 °FLow clouds.14 mph94%29.93 "Hg10 mi
1:53 pm64 °FLight rain. Low clouds.12 mph97%29.94 "Hg10 mi
12:53 pm64 °FLow clouds.10 mph94%29.95 "Hg10 mi
11:53 am62 °FLight rain. Fog.9 mph100%29.97 "Hg4 mi
11:00 am60 °FHeavy rain. Fog.10 mph96%29.97 "Hg2 mi
10:40 am60 °FLight rain. Fog.10 mph100%29.97 "Hg2 mi
10:35 am60 °FHeavy rain. Fog.13 mph100%29.97 "Hg1 mi
10:22 am60 °FHeavy rain. Fog.14 mph96%29.96 "Hg2 mi
9:53 am59 °FLight rain. Low clouds.10 mph100%29.96 "Hg9 mi
8:53 am59 °FLow clouds.9 mph100%29.96 "Hg10 mi
7:53 am59 °FLight rain. Low clouds.14 mph96%29.95 "Hg10 mi
7:18 am60 °FLow clouds.13 mph96%29.95 "Hg10 mi
7:03 am60 °FThundershowers. Low clouds.13 mph96%29.93 "Hg10 mi
6:53 am60 °FLight rain. Low clouds.10 mph100%29.93 "Hg9 mi
6:29 am61 °FThundershowers. Low clouds.15 mph97%29.92 "Hg10 mi
5:53 am63 °FLow clouds.12 mph97%29.90 "Hg10 mi
5:19 am64 °FMostly cloudy.10 mph97%29.90 "Hg10 mi
5:01 am66 °FThundershowers. Mostly cloudy.8 mph93%29.89 "Hg10 mi
4:24 am68 °FHeavy rain. Fog.No wind90%29.88 "Hg3 mi
3:53 am69 °FMostly cloudy.3 mph90%29.88 "Hg10 mi
Weather by CustomWeather, © 2017

See weather overviewHow to use our weather pages